DateTimeUTC,F1_A11,F1_S11,BsB_S11,BsG_S11,BsR_S11,BbsB_S11,BbsG_S11,BbsR_S11,BaB_A11,BaG_A11,BaR_A11,Tu_S11,T_S11,Uu_S11,U_S11,P_S11,T1_A11
2021-04-21T03:00:00Z,00000200,21000000,,,,,,,-000.11,0000.05,-000.18,16.3,24.2,,00.0,0656.4,31.0
2021-04-21T03:01:00Z,00000200,21000000,,,,,,,-000.26,-000.27,-000.34,16.4,24.2,,00.0,0656.4,31.0
2021-04-21T03:02:00Z,00000200,21000000,,,,,,,0000.02,-000.08,-000.03,16.4,24.2,,00.0,0656.4,31.0
2021-04-21T03:03:00Z,00000200,61000000,,,,,,,0000.09,0000.14,0000.40,16.4,24.2,,00.0,0656.4,31.0
2021-04-21T03:04:00Z,00000200,41000000,0000.31,0000.02,0000.47,0000.14,0000.09,-000.07,-000.16,-000.15,-000.67,16.5,24.0,,00.0,0657.3,31.0
2021-04-21T03:05:00Z,00000200,01000000,0000.61,0000.24,0000.31,-000.00,-000.01,-000.04,0000.45,0000.16,0000.22,16.5,23.9,,00.0,0657.4,31.0
2021-04-21T03:06:00Z,00000200,01000000,0001.10,0000.05,0000.11,-000.16,0000.27,-000.10,-000.06,-000.18,0000.49,16.5,23.9,,00.0,0657.4,31.0
2021-04-21T03:07:00Z,00000200,01000000,0000.12,0000.46,0000.03,0000.37,0000.21,-000.14,0000.26,0000.39,0000.02,16.5,23.9,,00.0,0657.4,31.0
2021-04-21T03:08:00Z,00000200,01000000,0000.56,0000.29,0000.15,0000.33,0000.23,-000.29,0000.14,0000.18,0000.09,16.6,23.9,,00.0,0657.4,31.0
2021-04-21T03:09:00Z,00000200,01000000,0000.36,0000.07,0000.12,0000.06,0000.11,-000.09,-000.25,0000.10,-000.01,16.6,23.9,,00.0,0657.4,31.0
2021-04-21T03:10:00Z,00000200,01000000,0000.48,0000.10,-000.24,0000.18,-000.01,-000.39,0000.23,-000.20,-000.10,16.7,24.0,,00.0,0657.4,31.0
2021-04-21T03:11:00Z,00000200,01000000,0000.69,0000.21,0000.04,-000.12,-000.12,-000.18,-000.01,0000.52,0000.40,16.7,24.0,,00.0,0657.4,31.0
2021-04-21T03:12:00Z,00000200,01000000,0000.31,-000.18,0000.27,-000.06,0000.17,-000.07,-000.05,0000.03,0000.17,16.8,24.0,,00.0,0657.4,31.0
2021-04-21T03:13:00Z,00000200,01000000,0000.36,-000.06,-000.04,-000.21,0000.26,-000.01,0000.32,-000.31,-000.30,16.8,24.0,,00.0,0657.5,31.1
2021-04-21T03:14:00Z,00000200,01000000,0000.93,0000.28,0000.29,-000.06,0000.26,-000.14,0000.17,0000.68,0000.49,16.9,24.1,,00.0,0657.5,31.1
2021-04-21T03:15:00Z,00000200,01000000,0000.18,0000.25,0000.32,0000.34,0000.16,-000.10,0000.14,0000.10,0000.05,17.0,24.1,,00.0,0657.5,31.1
2021-04-21T03:16:00Z,00000200,01000000,0000.37,0000.27,0000.40,-000.28,0000.33,0000.14,0000.50,0000.04,-000.22,17.0,24.2,,00.0,0657.5,31.1
2021-04-21T03:17:00Z,00000200,01000000,0000.54,0000.27,0000.23,-000.42,0000.28,-000.07,-000.21,0000.15,0000.35,17.1,24.2,,00.0,0657.5,31.1
2021-04-21T03:18:00Z,00000200,01000000,0000.43,0000.23,0000.22,-000.12,0000.07,0000.07,0000.41,0000.37,0000.25,17.1,24.2,,00.0,0657.5,31.1
2021-04-21T03:19:00Z,00000200,01000000,0000.25,0000.10,0000.22,0000.18,0000.22,-000.17,-000.01,-000.12,-000.05,17.2,24.3,,00.0,0657.5,31.1
2021-04-21T03:20:00Z,00000200,01000000,0000.59,0000.07,0000.15,-000.16,0000.05,0000.12,0000.25,0000.36,0000.20,17.2,24.3,,00.0,0657.5,31.1
2021-04-21T03:21:00Z,00000200,01000000,0001.01,0000.09,0000.14,0000.19,-000.12,0000.04,-000.02,0000.17,0000.21,17.3,24.3,,00.0,0657.5,31.1
2021-04-21T03:22:00Z,00000200,01000000,0000.55,0000.19,0000.21,-000.05,0000.02,-000.03,-000.42,-000.59,-000.54,17.3,24.4,,00.0,0657.5,31.1
2021-04-21T03:23:00Z,00000200,01000000,0000.08,0000.05,0000.22,0000.46,0000.15,-000.24,-000.01,0000.17,0000.12,17.3,24.4,,00.0,0657.5,31.1
2021-04-21T03:24:00Z,00000200,01000000,0000.31,0000.21,0000.46,0000.33,0000.05,0000.16,0000.29,0000.18,-000.25,17.3,24.4,,00.0,0657.5,31.1
2021-04-21T03:25:00Z,00000200,01000000,-000.04,0000.28,0000.12,0000.05,0000.21,-000.18,0000.36,0000.01,0000.42,17.2,24.3,,00.0,0657.5,31.0
2021-04-21T03:26:00Z,00000200,01000000,0000.17,-000.04,-000.12,0000.14,0000.08,-000.33,-000.11,-000.02,0000.32,17.2,24.3,,00.0,0657.6,31.0
2021-04-21T03:27:00Z,00000200,01000000,0000.45,0000.31,0000.17,0000.29,0000.05,0000.10,-000.01,-000.11,-000.23,17.1,24.3,,00.0,0657.6,31.0
2021-04-21T03:28:00Z,00000200,01000000,0000.36,0000.00,0000.04,0000.56,0000.17,0000.01,0000.22,0000.20,-000.18,17.0,24.3,,00.0,0657.6,31.0
2021-04-21T03:29:00Z,00000200,01000000,0000.37,0000.42,0000.28,-000.20,0000.24,-000.08,-000.19,0000.26,0000.10,17.0,24.2,,00.0,0657.6,31.0
2021-04-21T03:30:00Z,00000200,01000000,0000.33,0000.17,0000.30,-000.38,0000.11,-000.03,0000.17,-000.41,-000.27,16.9,24.2,,00.0,0657.6,31.0
2021-04-21T03:31:00Z,00000200,01000000,0001.17,0000.02,0000.17,0000.22,0000.08,0000.22,0000.09,0000.40,0000.50,16.8,24.2,,00.0,0657.6,31.0
2021-04-21T03:32:00Z,00000200,01000000,0000.93,0000.17,0000.25,0000.30,-000.16,0000.21,0000.40,0000.40,-000.05,16.8,24.1,,00.0,0657.6,31.0
2021-04-21T03:33:00Z,00000200,01010000,0000.78,0000.32,0000.10,-000.74,0000.15,-000.11,0000.26,-000.05,0000.30,16.8,24.1,,00.0,0657.6,31.0
2021-04-21T03:34:00Z,00000200,01000000,0001.14,0000.22,0000.32,0000.23,0000.11,-000.10,0000.23,0000.24,0000.15,16.7,24.1,,00.0,0657.6,31.0
2021-04-21T03:35:00Z,00000200,01000000,0000.46,0000.15,0000.19,0000.09,0000.20,-000.27,-000.09,-000.08,0000.05,16.7,24.1,,00.0,0657.6,31.0
2021-04-21T03:36:00Z,00000200,01000000,-000.20,0000.18,0000.33,0000.38,0000.18,0000.00,0000.44,0000.46,0000.17,16.6,24.0,,00.0,0657.6,31.0
2021-04-21T03:37:00Z,00000200,01000000,0000.80,0000.31,0000.48,-000.23,0000.14,0000.04,0000.07,0000.06,0000.21,16.6,24.0,,00.0,0657.6,31.0
2021-04-21T03:38:00Z,00000200,01000000,0000.78,0000.31,0000.17,-000.13,-000.00,-000.19,0000.14,-000.15,0000.05,16.7,24.0,,00.0,0657.6,31.0
2021-04-21T03:39:00Z,00000200,01000000,0000.54,0000.12,0000.18,-000.10,0000.07,0000.00,-000.02,0000.22,0000.17,16.7,24.0,,00.0,0657.6,31.0
2021-04-21T03:40:00Z,00000200,01000000,0000.18,0000.19,-000.13,0000.01,-000.00,0000.02,0000.08,0000.21,-000.01,16.8,24.0,,00.0,0657.6,31.0
2021-04-21T03:41:00Z,00000200,01000000,0000.84,0000.07,0000.31,0000.04,0000.20,-000.08,0000.54,0000.26,0000.28,16.8,24.1,,00.0,0657.6,31.0
2021-04-21T03:42:00Z,00000200,01000000,0000.96,0000.24,0000.49,0000.22,0000.15,0000.08,0000.20,0000.28,0000.08,16.9,24.1,,00.0,0657.6,31.1
2021-04-21T03:43:00Z,00000200,01000000,0000.43,0000.08,0000.38,-000.16,0000.33,-000.21,-000.40,-000.34,0000.01,16.9,24.1,,00.0,0657.6,31.1
2021-04-21T03:44:00Z,00000200,01000000,0000.16,0000.01,-000.10,0000.02,0000.08,-000.22,-000.17,-000.10,-000.28,16.9,24.1,,00.0,0657.6,31.0
2021-04-21T03:45:00Z,00000200,01000000,0000.83,0000.26,0000.24,-000.29,0000.16,-000.15,0000.30,0000.39,-000.04,16.9,24.1,,00.0,0657.7,31.0
2021-04-21T03:46:00Z,00000200,01000000,0001.01,0000.04,0000.02,-000.19,0000.31,-000.12,0000.25,0000.08,0000.15,16.8,24.1,,00.0,0657.7,31.0
2021-04-21T03:47:00Z,00000200,01000000,0000.86,0000.36,0000.12,0000.08,0000.17,0000.04,0000.09,0000.22,0000.09,16.8,24.1,,00.0,0657.7,31.0
2021-04-21T03:48:00Z,00000200,01000000,0000.35,0000.37,0000.26,0000.37,0000.20,0000.17,-000.28,-000.25,0000.10,16.7,24.0,,00.0,0657.7,31.0
2021-04-21T03:49:00Z,00000200,01000000,0000.27,0000.42,0000.01,0000.64,0000.39,-000.18,0000.25,0000.10,-000.10,16.7,24.0,,00.0,0657.7,31.0
2021-04-21T03:50:00Z,00000200,01000000,0000.18,0000.24,0000.03,-000.12,0000.19,-000.13,-000.02,-000.06,0000.17,16.6,23.9,,00.0,0657.7,31.0
2021-04-21T03:51:00Z,00000200,01000000,0000.21,0000.29,-000.06,-000.25,-000.03,-000.19,0000.49,0000.34,0000.25,16.6,23.9,,00.0,0657.7,31.0
2021-04-21T03:52:00Z,00000200,01000000,0000.07,0000.14,0000.30,0000.84,0000.03,-000.05,0000.57,0000.20,0000.25,16.6,23.9,,00.0,0657.7,31.0
2021-04-21T03:53:00Z,00000200,01000000,0000.91,0000.30,0000.20,-000.24,0000.21,-000.20,-000.35,0000.06,-000.21,16.6,23.9,,00.0,0657.7,31.0
2021-04-21T03:54:00Z,00000200,01000000,0000.28,0000.04,-000.09,0000.45,0000.09,-000.47,0000.32,0000.43,0000.42,16.6,23.9,,00.0,0657.7,31.0
2021-04-21T03:55:00Z,00000200,01000000,0000.71,0000.21,0000.33,0000.05,0000.33,-000.38,0000.15,-000.28,-000.09,16.6,23.9,,00.0,0657.7,31.0
2021-04-21T03:56:00Z,00000200,01000000,0000.40,0000.24,0000.23,-000.31,0000.03,0000.05,-000.19,0000.54,-000.06,16.6,23.9,,00.0,0657.7,31.0
2021-04-21T03:57:00Z,00000200,41000000,,,,,,,0000.08,-000.56,-000.02,16.7,23.9,,00.0,0657.6,31.0
2021-04-21T03:58:00Z,00000200,61000000,,,,,,,-000.05,-000.11,-000.10,16.2,24.0,,00.0,0656.7,31.0
2021-04-21T03:59:00Z,00000200,21000000,,,,,,,-000.09,-000.01,-000.05,16.2,24.1,,00.0,0656.7,31.0
